Time,TemperatureF,DewpointF,PressureIn,WindDirection,WindDirectionDegrees,WindSpeedMPH,WindSpeedGustMPH,Humidity,HourlyPrecipIn,Conditions,Clouds,dailyrainin,SoftwareType,DateUTC
2013-03-17 00:00:00,32.0,30.2,29.70,NNW,347,3.5,-999.9,93,-99.99,,,-99.99,,2013-03-17 04:00:00,
2013-03-17 00:06:00,32.0,30.2,29.70,NNW,337,1.2,-999.9,93,-99.99,,,-99.99,,2013-03-17 04:06:00,
2013-03-17 00:12:00,32.0,30.2,29.70,North,0,1.2,-999.9,93,-99.99,,,-99.99,,2013-03-17 04:12:00,
2013-03-17 00:18:00,32.0,30.2,29.70,North,0,1.2,-999.9,93,-99.99,,,-99.99,,2013-03-17 04:18:00,
2013-03-17 00:20:00,32.0,30.2,29.70,North,0,1.2,-999.9,93,-99.99,,,-99.99,,2013-03-17 04:20:00,
2013-03-17 00:26:00,33.8,32.0,29.70,NNW,327,2.3,-999.9,93,-99.99,,,-99.99,,2013-03-17 04:26:00,
2013-03-17 00:32:00,32.0,28.4,29.70,North,4,0.0,-999.9,87,-99.99,,,-99.99,,2013-03-17 04:32:00,
2013-03-17 00:38:00,32.0,28.4,29.70,North,4,0.0,-999.9,87,-99.99,,,-99.99,,2013-03-17 04:38:00,
2013-03-17 00:44:00,32.0,30.2,29.71,North,0,0.0,-999.9,93,-99.99,,,-99.99,,2013-03-17 04:44:00,
2013-03-17 00:50:00,32.0,30.2,29.71,North,0,0.0,-999.9,93,-99.99,,,-99.99,,2013-03-17 04:50:00,
2013-03-17 00:56:00,33.8,30.2,29.70,North,0,0.0,-999.9,87,-99.99,,,-99.99,,2013-03-17 04:56:00,
2013-03-17 01:02:00,33.8,30.2,29.71,NNE,19,0.0,-999.9,87,-99.99,,,-99.99,,2013-03-17 05:02:00,
2013-03-17 01:08:00,33.8,30.2,29.71,NNE,19,0.0,-999.9,87,-99.99,,,-99.99,,2013-03-17 05:08:00,
2013-03-17 01:42:00,32.0,28.4,29.70,North,0,0.0,-999.9,87,-99.99,,,-99.99,,2013-03-17 05:42:00,
2013-03-17 01:48:00,32.0,28.4,29.70,North,0,0.0,-999.9,87,-99.99,,,-99.99,,2013-03-17 05:48:00,
2013-03-17 01:54:00,33.8,30.2,29.71,North,0,0.0,-999.9,87,-99.99,,,-99.99,,2013-03-17 05:54:00,
2013-03-17 02:00:00,33.8,30.2,29.71,North,0,0.0,-999.9,87,-99.99,,,-99.99,,2013-03-17 06:00:00,
2013-03-17 02:12:00,32.0,28.4,29.72,NNW,333,2.3,-999.9,87,-99.99,,,-99.99,,2013-03-17 06:12:00,
2013-03-17 02:18:00,32.0,28.4,29.72,NNW,333,2.3,-999.9,87,-99.99,,,-99.99,,2013-03-17 06:18:00,
2013-03-17 02:24:00,32.0,28.4,29.72,North,0,0.0,-999.9,87,-99.99,,,-99.99,,2013-03-17 06:24:00,
2013-03-17 02:30:00,32.0,28.4,29.72,North,0,0.0,-999.9,87,-99.99,,,-99.99,,2013-03-17 06:30:00,
2013-03-17 02:36:00,32.0,28.4,29.72,North,0,0.0,-999.9,87,-99.99,,,-99.99,,2013-03-17 06:36:00,
2013-03-17 02:42:00,32.0,28.4,29.72,NW,318,3.5,-999.9,87,-99.99,,,-99.99,,2013-03-17 06:42:00,
2013-03-17 02:48:00,32.0,28.4,29.72,NW,318,3.5,-999.9,87,-99.99,,,-99.99,,2013-03-17 06:48:00,
2013-03-17 02:54:00,32.0,28.4,29.73,North,358,5.8,-999.9,87,-99.99,,,-99.99,,2013-03-17 06:54:00,
2013-03-17 03:00:00,32.0,28.4,29.73,North,358,5.8,-999.9,87,-99.99,,,-99.99,,2013-03-17 07:00:00,
2013-03-17 03:06:00,32.0,28.4,29.73,North,2,3.5,-999.9,87,-99.99,,,-99.99,,2013-03-17 07:06:00,
2013-03-17 03:12:00,32.0,28.4,29.73,NNW,340,8.1,-999.9,87,-99.99,,,-99.99,,2013-03-17 07:12:00,
2013-03-17 03:18:00,32.0,28.4,29.73,NNW,340,8.1,-999.9,87,-99.99,,,-99.99,,2013-03-17 07:18:00,
2013-03-17 03:24:00,32.0,28.4,29.73,NNW,344,3.5,-999.9,87,-99.99,,,-99.99,,2013-03-17 07:24:00,
2013-03-17 03:30:00,32.0,28.4,29.73,NNW,344,3.5,-999.9,87,-99.99,,,-99.99,,2013-03-17 07:30:00,
2013-03-17 03:36:00,32.0,26.6,29.74,NNE,14,4.6,-999.9,80,-99.99,,,-99.99,,2013-03-17 07:36:00,
2013-03-17 03:42:00,32.0,26.6,29.74,NNE,16,4.6,-999.9,80,-99.99,,,-99.99,,2013-03-17 07:42:00,
2013-03-17 03:48:00,32.0,26.6,29.74,NNE,16,4.6,-999.9,80,-99.99,,,-99.99,,2013-03-17 07:48:00,
2013-03-17 03:54:00,32.0,26.6,29.75,ENE,62,3.5,-999.9,80,-99.99,,,-99.99,,2013-03-17 07:54:00,
2013-03-17 04:00:00,32.0,26.6,29.75,ENE,62,3.5,-999.9,80,-99.99,,,-99.99,,2013-03-17 08:00:00,
2013-03-17 04:06:00,32.0,26.6,29.75,North,0,0.0,-999.9,80,-99.99,,,-99.99,,2013-03-17 08:06:00,
2013-03-17 04:12:00,32.0,24.8,29.76,NNE,13,2.3,-999.9,75,-99.99,,,-99.99,,2013-03-17 08:12:00,
2013-03-17 04:18:00,32.0,24.8,29.76,NNE,13,2.3,-999.9,75,-99.99,,,-99.99,,2013-03-17 08:18:00,
2013-03-17 04:24:00,30.2,23.0,29.76,North,349,1.2,-999.9,75,-99.99,,,-99.99,,2013-03-17 08:24:00,
2013-03-17 04:30:00,30.2,23.0,29.76,North,349,1.2,-999.9,75,-99.99,,,-99.99,,2013-03-17 08:30:00,
2013-03-17 04:36:00,32.0,24.8,29.76,North,0,0.0,-999.9,75,-99.99,,,-99.99,,2013-03-17 08:36:00,
2013-03-17 04:42:00,32.0,24.8,29.77,NNE,32,4.6,-999.9,75,-99.99,,,-99.99,,2013-03-17 08:42:00,
2013-03-17 04:48:00,32.0,24.8,29.77,NNE,32,4.6,-999.9,75,-99.99,,,-99.99,,2013-03-17 08:48:00,
2013-03-17 04:54:00,32.0,23.0,29.77,North,0,0.0,-999.9,69,-99.99,,,-99.99,,2013-03-17 08:54:00,
2013-03-17 05:00:00,32.0,23.0,29.77,North,0,0.0,-999.9,69,-99.99,,,-99.99,,2013-03-17 09:00:00,
2013-03-17 05:06:00,32.0,23.0,29.77,North,354,3.5,-999.9,69,-99.99,,,-99.99,,2013-03-17 09:06:00,
2013-03-17 05:12:00,32.0,23.0,29.78,North,8,0.0,-999.9,69,-99.99,,,-99.99,,2013-03-17 09:12:00,
2013-03-17 05:18:00,32.0,23.0,29.78,North,8,0.0,-999.9,69,-99.99,,,-99.99,,2013-03-17 09:18:00,
2013-03-17 05:24:00,30.2,21.2,29.78,NW,325,6.9,-999.9,69,-99.99,,,-99.99,,2013-03-17 09:24:00,
2013-03-17 05:30:00,30.2,21.2,29.78,NW,325,6.9,-999.9,69,-99.99,,,-99.99,,2013-03-17 09:30:00,
2013-03-17 05:36:00,30.2,21.2,29.79,WNW,293,3.5,-999.9,69,-99.99,,,-99.99,,2013-03-17 09:36:00,
2013-03-17 05:42:00,30.2,21.2,29.80,NNW,337,6.9,-999.9,69,-99.99,,,-99.99,,2013-03-17 09:42:00,
2013-03-17 05:48:00,30.2,21.2,29.80,NNW,337,6.9,-999.9,69,-99.99,,,-99.99,,2013-03-17 09:48:00,
2013-03-17 05:54:00,30.2,21.2,29.80,North,352,2.3,-999.9,69,-99.99,,,-99.99,,2013-03-17 09:54:00,
2013-03-17 06:00:00,30.2,21.2,29.80,North,352,2.3,-999.9,69,-99.99,,,-99.99,,2013-03-17 10:00:00,
2013-03-17 06:06:00,30.2,21.2,29.80,North,5,5.8,-999.9,69,-99.99,,,-99.99,,2013-03-17 10:06:00,
2013-03-17 06:12:00,30.2,21.2,29.81,NNE,27,8.1,-999.9,69,-99.99,,,-99.99,,2013-03-17 10:12:00,
2013-03-17 06:18:00,30.2,21.2,29.81,NNE,27,8.1,-999.9,69,-99.99,,,-99.99,,2013-03-17 10:18:00,
2013-03-17 06:24:00,28.4,19.4,29.81,NNE,23,13.8,-999.9,69,-99.99,,,-99.99,,2013-03-17 10:24:00,
2013-03-17 06:30:00,28.4,19.4,29.81,NNE,23,13.8,-999.9,69,-99.99,,,-99.99,,2013-03-17 10:30:00,
2013-03-17 06:36:00,28.4,19.4,29.81,North,4,12.7,-999.9,69,-99.99,,,-99.99,,2013-03-17 10:36:00,
2013-03-17 06:42:00,28.4,19.4,29.82,NNE,13,6.9,-999.9,69,-99.99,,,-99.99,,2013-03-17 10:42:00,
2013-03-17 06:48:00,28.4,19.4,29.82,NNE,13,6.9,-999.9,69,-99.99,,,-99.99,,2013-03-17 10:48:00,
2013-03-17 06:54:00,28.4,19.4,29.83,North,10,9.2,-999.9,69,-99.99,,,-99.99,,2013-03-17 10:54:00,
2013-03-17 07:00:00,28.4,19.4,29.83,North,10,9.2,-999.9,69,-99.99,,,-99.99,,2013-03-17 11:00:00,
2013-03-17 07:06:00,28.4,19.4,29.84,North,7,9.2,-999.9,69,-99.99,,,-99.99,,2013-03-17 11:06:00,
2013-03-17 07:12:00,28.4,19.4,29.85,NNW,331,10.4,-999.9,69,-99.99,,,-99.99,,2013-03-17 11:12:00,
2013-03-17 07:18:00,28.4,19.4,29.85,NNW,331,10.4,-999.9,69,-99.99,,,-99.99,,2013-03-17 11:18:00,
2013-03-17 07:24:00,28.4,19.4,29.86,NW,322,4.6,-999.9,69,-99.99,,,-99.99,,2013-03-17 11:24:00,
2013-03-17 07:30:00,28.4,19.4,29.86,NW,322,4.6,-999.9,69,-99.99,,,-99.99,,2013-03-17 11:30:00,
2013-03-17 07:36:00,28.4,19.4,29.87,North,9,2.3,-999.9,69,-99.99,,,-99.99,,2013-03-17 11:36:00,
2013-03-17 07:42:00,28.4,17.6,29.88,North,5,2.3,-999.9,64,-99.99,,,-99.99,,2013-03-17 11:42:00,
2013-03-17 07:48:00,28.4,17.6,29.88,North,5,2.3,-999.9,64,-99.99,,,-99.99,,2013-03-17 11:48:00,
2013-03-17 07:54:00,28.4,17.6,29.88,North,3,10.4,-999.9,64,-99.99,,,-99.99,,2013-03-17 11:54:00,
2013-03-17 08:00:00,28.4,17.6,29.88,North,3,10.4,-999.9,64,-99.99,,,-99.99,,2013-03-17 12:00:00,
2013-03-17 08:06:00,28.4,15.8,29.88,NNE,14,8.1,-999.9,59,-99.99,,,-99.99,,2013-03-17 12:06:00,
2013-03-17 08:12:00,28.4,15.8,29.87,NNE,23,9.2,-999.9,59,-99.99,,,-99.99,,2013-03-17 12:12:00,
2013-03-17 08:18:00,28.4,15.8,29.87,NNE,23,9.2,-999.9,59,-99.99,,,-99.99,,2013-03-17 12:18:00,
2013-03-17 08:24:00,28.4,15.8,29.87,NNE,16,12.7,-999.9,59,-99.99,,,-99.99,,2013-03-17 12:24:00,
2013-03-17 08:30:00,28.4,15.8,29.87,NNE,16,12.7,-999.9,59,-99.99,,,-99.99,,2013-03-17 12:30:00,
2013-03-17 08:36:00,28.4,15.8,29.86,North,9,8.1,-999.9,59,-99.99,,,-99.99,,2013-03-17 12:36:00,
2013-03-17 08:42:00,28.4,15.8,29.87,NNE,17,6.9,-999.9,59,-99.99,,,-99.99,,2013-03-17 12:42:00,
2013-03-17 08:48:00,28.4,15.8,29.87,NNE,17,6.9,-999.9,59,-99.99,,,-99.99,,2013-03-17 12:48:00,
2013-03-17 08:54:00,28.4,15.8,29.87,NNE,13,6.9,-999.9,59,-99.99,,,-99.99,,2013-03-17 12:54:00,
2013-03-17 09:00:00,28.4,15.8,29.87,NNE,13,6.9,-999.9,59,-99.99,,,-99.99,,2013-03-17 13:00:00,
2013-03-17 09:06:00,28.4,14.0,29.87,North,349,6.9,-999.9,55,-99.99,,,-99.99,,2013-03-17 13:06:00,
2013-03-17 09:12:00,30.2,14.0,29.88,NNW,334,6.9,-999.9,51,-99.99,,,-99.99,,2013-03-17 13:12:00,
2013-03-17 09:18:00,30.2,14.0,29.88,NNW,334,6.9,-999.9,51,-99.99,,,-99.99,,2013-03-17 13:18:00,
2013-03-17 09:24:00,30.2,15.8,29.88,North,353,4.6,-999.9,55,-99.99,,,-99.99,,2013-03-17 13:24:00,
2013-03-17 09:30:00,30.2,15.8,29.88,North,353,4.6,-999.9,55,-99.99,,,-99.99,,2013-03-17 13:30:00,
2013-03-17 09:36:00,30.2,15.8,29.89,North,7,4.6,-999.9,55,-99.99,,,-99.99,,2013-03-17 13:36:00,
2013-03-17 09:42:00,30.2,15.8,29.89,NNE,14,5.8,-999.9,55,-99.99,,,-99.99,,2013-03-17 13:42:00,
2013-03-17 09:48:00,30.2,15.8,29.89,NNE,14,5.8,-999.9,55,-99.99,,,-99.99,,2013-03-17 13:48:00,
2013-03-17 09:54:00,30.2,14.0,29.89,NNE,25,11.5,-999.9,51,-99.99,,,-99.99,,2013-03-17 13:54:00,
2013-03-17 10:00:00,30.2,14.0,29.89,NNE,25,11.5,-999.9,51,-99.99,,,-99.99,,2013-03-17 14:00:00,
2013-03-17 10:06:00,30.2,15.8,29.88,NNE,26,3.5,-999.9,55,-99.99,,,-99.99,,2013-03-17 14:06:00,
2013-03-17 10:12:00,30.2,15.8,29.88,North,5,9.2,-999.9,55,-99.99,,,-99.99,,2013-03-17 14:12:00,
2013-03-17 10:18:00,30.2,15.8,29.88,North,5,9.2,-999.9,55,-99.99,,,-99.99,,2013-03-17 14:18:00,
2013-03-17 10:24:00,32.0,17.6,29.88,NNE,17,3.5,-999.9,55,-99.99,,,-99.99,,2013-03-17 14:24:00,
2013-03-17 10:32:00,32.0,15.8,29.88,NNE,20,11.5,-999.9,51,-99.99,,,-99.99,,2013-03-17 14:32:00,
2013-03-17 10:38:00,32.0,15.8,29.88,NNE,20,11.5,-999.9,51,-99.99,,,-99.99,,2013-03-17 14:38:00,
2013-03-17 10:44:00,32.0,15.8,29.88,North,351,9.2,-999.9,51,-99.99,,,-99.99,,2013-03-17 14:44:00,
2013-03-17 10:50:00,32.0,15.8,29.88,North,351,9.2,-999.9,51,-99.99,,,-99.99,,2013-03-17 14:50:00,
2013-03-17 10:56:00,32.0,15.8,29.88,NNW,348,9.2,-999.9,51,-99.99,,,-99.99,,2013-03-17 14:56:00,
2013-03-17 11:02:00,32.0,15.8,29.89,NNW,335,12.7,-999.9,51,-99.99,,,-99.99,,2013-03-17 15:02:00,
2013-03-17 11:08:00,32.0,15.8,29.89,NNW,335,12.7,-999.9,51,-99.99,,,-99.99,,2013-03-17 15:08:00,
2013-03-17 11:14:00,32.0,15.8,29.89,NNW,332,5.8,-999.9,51,-99.99,,,-99.99,,2013-03-17 15:14:00,
2013-03-17 11:20:00,32.0,15.8,29.89,NNW,332,5.8,-999.9,51,-99.99,,,-99.99,,2013-03-17 15:20:00,
2013-03-17 11:26:00,32.0,15.8,29.89,North,349,4.6,-999.9,51,-99.99,,,-99.99,,2013-03-17 15:26:00,
2013-03-17 11:32:00,32.0,15.8,29.89,North,354,12.7,-999.9,51,-99.99,,,-99.99,,2013-03-17 15:32:00,
2013-03-17 11:38:00,32.0,15.8,29.89,North,354,12.7,-999.9,51,-99.99,,,-99.99,,2013-03-17 15:38:00,
2013-03-17 11:44:00,32.0,15.8,29.88,NNE,13,15.0,-999.9,51,-99.99,,,-99.99,,2013-03-17 15:44:00,
2013-03-17 11:50:00,32.0,15.8,29.88,NNE,13,15.0,-999.9,51,-99.99,,,-99.99,,2013-03-17 15:50:00,
2013-03-17 11:56:00,32.0,15.8,29.89,North,2,9.2,-999.9,51,-99.99,,,-99.99,,2013-03-17 15:56:00,
2013-03-17 12:02:00,32.0,15.8,29.88,North,9,11.5,-999.9,51,-99.99,,,-99.99,,2013-03-17 16:02:00,
2013-03-17 12:08:00,32.0,15.8,29.88,North,9,11.5,-999.9,51,-99.99,,,-99.99,,2013-03-17 16:08:00,
2013-03-17 12:14:00,32.0,15.8,29.88,North,6,6.9,-999.9,51,-99.99,,,-99.99,,2013-03-17 16:14:00,
2013-03-17 12:20:00,32.0,15.8,29.88,North,6,6.9,-999.9,51,-99.99,,,-99.99,,2013-03-17 16:20:00,
2013-03-17 12:26:00,32.0,14.0,29.88,North,6,12.7,-999.9,48,-99.99,,,-99.99,,2013-03-17 16:26:00,
2013-03-17 12:32:00,32.0,14.0,29.88,North,7,10.4,-999.9,48,-99.99,,,-99.99,,2013-03-17 16:32:00,
2013-03-17 12:38:00,32.0,14.0,29.88,North,7,10.4,-999.9,48,-99.99,,,-99.99,,2013-03-17 16:38:00,
2013-03-17 12:44:00,32.0,14.0,29.89,North,350,12.7,-999.9,48,-99.99,,,-99.99,,2013-03-17 16:44:00,
2013-03-17 12:50:00,32.0,14.0,29.89,North,350,12.7,-999.9,48,-99.99,,,-99.99,,2013-03-17 16:50:00,
2013-03-17 12:56:00,33.8,14.0,29.89,North,4,13.8,-999.9,44,-99.99,,,-99.99,,2013-03-17 16:56:00,
2013-03-17 13:02:00,33.8,15.8,29.89,NNE,25,5.8,-999.9,48,-99.99,,,-99.99,,2013-03-17 17:02:00,
2013-03-17 13:08:00,33.8,15.8,29.89,NNE,25,5.8,-999.9,48,-99.99,,,-99.99,,2013-03-17 17:08:00,
2013-03-17 13:14:00,33.8,14.0,29.89,NNW,343,13.8,-999.9,44,-99.99,,,-99.99,,2013-03-17 17:14:00,
2013-03-17 13:20:00,33.8,14.0,29.89,NNW,343,13.8,-999.9,44,-99.99,,,-99.99,,2013-03-17 17:20:00,
2013-03-17 13:26:00,33.8,14.0,29.89,NNE,13,4.6,-999.9,44,-99.99,,,-99.99,,2013-03-17 17:26:00,
2013-03-17 13:32:00,33.8,14.0,29.89,North,352,9.2,-999.9,44,-99.99,,,-99.99,,2013-03-17 17:32:00,
2013-03-17 13:38:00,33.8,14.0,29.89,North,352,9.2,-999.9,44,-99.99,,,-99.99,,2013-03-17 17:38:00,
2013-03-17 13:44:00,33.8,14.0,29.89,NNW,344,10.4,-999.9,44,-99.99,,,-99.99,,2013-03-17 17:44:00,
2013-03-17 13:50:00,33.8,14.0,29.89,NNW,344,10.4,-999.9,44,-99.99,,,-99.99,,2013-03-17 17:50:00,
2013-03-17 13:56:00,35.6,15.8,29.89,NNW,342,19.6,-999.9,44,-99.99,,,-99.99,,2013-03-17 17:56:00,
2013-03-17 14:02:00,33.8,14.0,29.89,NW,323,11.5,-999.9,44,-99.99,,,-99.99,,2013-03-17 18:02:00,
2013-03-17 14:08:00,33.8,14.0,29.89,NW,323,11.5,-999.9,44,-99.99,,,-99.99,,2013-03-17 18:08:00,
2013-03-17 14:14:00,35.6,15.8,29.89,North,359,5.8,-999.9,44,-99.99,,,-99.99,,2013-03-17 18:14:00,
2013-03-17 14:20:00,35.6,15.8,29.89,North,359,5.8,-999.9,44,-99.99,,,-99.99,,2013-03-17 18:20:00,
2013-03-17 14:26:00,35.6,14.0,29.89,NNW,345,6.9,-999.9,41,-99.99,,,-99.99,,2013-03-17 18:26:00,
2013-03-17 14:32:00,35.6,14.0,29.89,NW,322,5.8,-999.9,41,-99.99,,,-99.99,,2013-03-17 18:32:00,
2013-03-17 14:38:00,35.6,14.0,29.89,NW,322,5.8,-999.9,41,-99.99,,,-99.99,,2013-03-17 18:38:00,
2013-03-17 14:44:00,35.6,14.0,29.89,NW,315,2.3,-999.9,41,-99.99,,,-99.99,,2013-03-17 18:44:00,
2013-03-17 14:50:00,35.6,14.0,29.89,NW,315,2.3,-999.9,41,-99.99,,,-99.99,,2013-03-17 18:50:00,
2013-03-17 14:56:00,35.6,14.0,29.89,North,6,6.9,-999.9,41,-99.99,,,-99.99,,2013-03-17 18:56:00,
2013-03-17 15:02:00,35.6,14.0,29.88,NNW,331,12.7,-999.9,41,-99.99,,,-99.99,,2013-03-17 19:02:00,
2013-03-17 15:08:00,35.6,14.0,29.88,NNW,331,12.7,-999.9,41,-99.99,,,-99.99,,2013-03-17 19:08:00,
2013-03-17 15:14:00,35.6,14.0,29.88,NNW,327,9.2,-999.9,41,-99.99,,,-99.99,,2013-03-17 19:14:00,
2013-03-17 15:20:00,37.4,14.0,29.88,NW,317,11.5,-999.9,38,-99.99,,,-99.99,,2013-03-17 19:20:00,
2013-03-17 15:26:00,37.4,14.0,29.88,NW,317,11.5,-999.9,38,-99.99,,,-99.99,,2013-03-17 19:26:00,
2013-03-17 15:34:00,37.4,14.0,29.87,NNW,327,9.2,-999.9,38,-99.99,,,-99.99,,2013-03-17 19:34:00,
2013-03-17 15:40:00,37.4,14.0,29.87,NNW,327,9.2,-999.9,38,-99.99,,,-99.99,,2013-03-17 19:40:00,
2013-03-17 15:46:00,37.4,12.2,29.88,NNW,341,11.5,-999.9,36,-99.99,,,-99.99,,2013-03-17 19:46:00,
2013-03-17 15:52:00,37.4,10.4,29.87,NNW,346,8.1,-999.9,33,-99.99,,,-99.99,,2013-03-17 19:52:00,
2013-03-17 15:58:00,37.4,10.4,29.87,NNW,346,8.1,-999.9,33,-99.99,,,-99.99,,2013-03-17 19:58:00,
2013-03-17 16:04:00,37.4,10.4,29.88,North,353,9.2,-999.9,33,-99.99,,,-99.99,,2013-03-17 20:04:00,
2013-03-17 16:10:00,37.4,10.4,29.88,North,353,9.2,-999.9,33,-99.99,,,-99.99,,2013-03-17 20:10:00,
2013-03-17 16:16:00,39.2,12.2,29.88,NNW,341,12.7,-999.9,33,-99.99,,,-99.99,,2013-03-17 20:16:00,
2013-03-17 16:22:00,37.4,10.4,29.88,NNW,342,13.8,-999.9,33,-99.99,,,-99.99,,2013-03-17 20:22:00,
2013-03-17 16:28:00,37.4,10.4,29.88,NNW,342,13.8,-999.9,33,-99.99,,,-99.99,,2013-03-17 20:28:00,
2013-03-17 16:34:00,37.4,12.2,29.88,North,11,3.5,-999.9,36,-99.99,,,-99.99,,2013-03-17 20:34:00,
2013-03-17 16:40:00,37.4,12.2,29.88,North,11,3.5,-999.9,36,-99.99,,,-99.99,,2013-03-17 20:40:00,
2013-03-17 16:47:00,37.4,10.4,29.88,NNE,26,5.8,-999.9,33,-99.99,,,-99.99,,2013-03-17 20:47:00,
2013-03-17 16:54:00,37.4,12.2,29.89,NW,324,4.6,-999.9,36,-99.99,,,-99.99,,2013-03-17 20:54:00,
2013-03-17 17:00:00,37.4,12.2,29.89,NW,324,4.6,-999.9,36,-99.99,,,-99.99,,2013-03-17 21:00:00,
2013-03-17 17:06:00,39.2,12.2,29.89,NNW,336,5.8,-999.9,33,-99.99,,,-99.99,,2013-03-17 21:06:00,
2013-03-17 17:12:00,37.4,10.4,29.89,NW,309,12.7,-999.9,33,-99.99,,,-99.99,,2013-03-17 21:12:00,
2013-03-17 17:18:00,37.4,10.4,29.89,NW,309,12.7,-999.9,33,-99.99,,,-99.99,,2013-03-17 21:18:00,
2013-03-17 17:24:00,37.4,10.4,29.90,North,359,11.5,-999.9,33,-99.99,,,-99.99,,2013-03-17 21:24:00,
2013-03-17 17:30:00,37.4,10.4,29.90,North,359,11.5,-999.9,33,-99.99,,,-99.99,,2013-03-17 21:30:00,
2013-03-17 17:36:00,37.4,10.4,29.90,NW,322,3.5,-999.9,33,-99.99,,,-99.99,,2013-03-17 21:36:00,
2013-03-17 17:42:00,37.4,10.4,29.91,NNW,344,2.3,-999.9,33,-99.99,,,-99.99,,2013-03-17 21:42:00,
2013-03-17 17:48:00,37.4,10.4,29.91,NNW,344,2.3,-999.9,33,-99.99,,,-99.99,,2013-03-17 21:48:00,
2013-03-17 17:54:00,37.4,10.4,29.91,NNW,332,3.5,-999.9,33,-99.99,,,-99.99,,2013-03-17 21:54:00,
2013-03-17 18:00:00,37.4,10.4,29.91,NNW,332,3.5,-999.9,33,-99.99,,,-99.99,,2013-03-17 22:00:00,
2013-03-17 18:06:00,37.4,10.4,29.92,NNW,344,12.7,-999.9,33,-99.99,,,-99.99,,2013-03-17 22:06:00,
2013-03-17 18:12:00,37.4,12.2,29.92,NNW,336,6.9,-999.9,36,-99.99,,,-99.99,,2013-03-17 22:12:00,
2013-03-17 18:18:00,37.4,12.2,29.92,NNW,336,6.9,-999.9,36,-99.99,,,-99.99,,2013-03-17 22:18:00,
2013-03-17 18:24:00,37.4,12.2,29.93,North,10,3.5,-999.9,36,-99.99,,,-99.99,,2013-03-17 22:24:00,
2013-03-17 18:30:00,37.4,12.2,29.93,NNW,333,3.5,-999.9,36,-99.99,,,-99.99,,2013-03-17 22:30:00,
2013-03-17 18:36:00,37.4,12.2,29.93,NNW,333,3.5,-999.9,36,-99.99,,,-99.99,,2013-03-17 22:36:00,
2013-03-17 18:42:00,37.4,12.2,29.94,NNW,329,3.5,-999.9,36,-99.99,,,-99.99,,2013-03-17 22:42:00,
2013-03-17 18:48:00,37.4,12.2,29.94,NNW,329,3.5,-999.9,36,-99.99,,,-99.99,,2013-03-17 22:48:00,
2013-03-17 18:54:00,37.4,12.2,29.95,NNW,343,10.4,-999.9,36,-99.99,,,-99.99,,2013-03-17 22:54:00,
2013-03-17 19:00:00,37.4,12.2,29.95,NNW,343,10.4,-999.9,36,-99.99,,,-99.99,,2013-03-17 23:00:00,
2013-03-17 19:06:00,37.4,12.2,29.95,WNW,297,5.8,-999.9,36,-99.99,,,-99.99,,2013-03-17 23:06:00,
2013-03-17 19:12:00,37.4,12.2,29.96,NW,314,4.6,-999.9,36,-99.99,,,-99.99,,2013-03-17 23:12:00,
2013-03-17 19:18:00,37.4,12.2,29.96,NW,314,4.6,-999.9,36,-99.99,,,-99.99,,2013-03-17 23:18:00,
2013-03-17 19:24:00,37.4,10.4,29.96,NNW,333,8.1,-999.9,33,-99.99,,,-99.99,,2013-03-17 23:24:00,
2013-03-17 19:30:00,37.4,10.4,29.96,NNW,333,8.1,-999.9,33,-99.99,,,-99.99,,2013-03-17 23:30:00,
2013-03-17 19:36:00,37.4,12.2,29.97,WNW,291,1.2,-999.9,36,-99.99,,,-99.99,,2013-03-17 23:36:00,
2013-03-17 19:42:00,37.4,10.4,29.98,NW,317,5.8,-999.9,33,-99.99,,,-99.99,,2013-03-17 23:42:00,
2013-03-17 19:48:00,37.4,10.4,29.98,NW,317,5.8,-999.9,33,-99.99,,,-99.99,,2013-03-17 23:48:00,
2013-03-17 19:56:00,37.4,12.2,29.98,NNW,327,4.6,-999.9,36,-99.99,,,-99.99,,2013-03-17 23:56:00,
2013-03-17 20:02:00,37.4,10.4,29.99,NW,325,3.5,-999.9,33,-99.99,,,-99.99,,2013-03-18 00:02:00,
2013-03-17 20:08:00,37.4,10.4,29.99,NW,325,3.5,-999.9,33,-99.99,,,-99.99,,2013-03-18 00:08:00,
2013-03-17 20:14:00,37.4,10.4,29.99,NW,307,4.6,-999.9,33,-99.99,,,-99.99,,2013-03-18 00:14:00,
2013-03-17 20:20:00,37.4,10.4,29.99,NW,307,4.6,-999.9,33,-99.99,,,-99.99,,2013-03-18 00:20:00,
2013-03-17 21:12:00,35.6,8.6,30.03,NNW,348,5.8,-999.9,33,-99.99,,,-99.99,,2013-03-18 01:12:00,
2013-03-17 21:18:00,35.6,8.6,30.03,NNW,348,5.8,-999.9,33,-99.99,,,-99.99,,2013-03-18 01:18:00,
2013-03-17 21:24:00,35.6,8.6,30.03,NNW,336,5.8,-999.9,33,-99.99,,,-99.99,,2013-03-18 01:24:00,
2013-03-17 21:30:00,35.6,8.6,30.03,NNW,336,5.8,-999.9,33,-99.99,,,-99.99,,2013-03-18 01:30:00,
2013-03-17 21:36:00,35.6,8.6,30.04,North,359,4.6,-999.9,33,-99.99,,,-99.99,,2013-03-18 01:36:00,
2013-03-17 21:42:00,35.6,8.6,30.04,North,359,3.5,-999.9,33,-99.99,,,-99.99,,2013-03-18 01:42:00,
2013-03-17 21:48:00,35.6,8.6,30.04,North,359,3.5,-999.9,33,-99.99,,,-99.99,,2013-03-18 01:48:00,
2013-03-17 21:54:00,35.6,10.4,30.05,NNE,22,8.1,-999.9,35,-99.99,,,-99.99,,2013-03-18 01:54:00,
2013-03-17 22:00:00,35.6,10.4,30.05,NNE,22,8.1,-999.9,35,-99.99,,,-99.99,,2013-03-18 02:00:00,
2013-03-17 22:06:00,35.6,10.4,30.05,NNE,16,4.6,-999.9,35,-99.99,,,-99.99,,2013-03-18 02:06:00,
2013-03-17 22:12:00,35.6,10.4,30.06,NNE,29,1.2,-999.9,35,-99.99,,,-99.99,,2013-03-18 02:12:00,
2013-03-17 22:18:00,35.6,10.4,30.06,NNE,29,1.2,-999.9,35,-99.99,,,-99.99,,2013-03-18 02:18:00,
2013-03-17 22:24:00,35.6,8.6,30.07,NE,40,3.5,-999.9,33,-99.99,,,-99.99,,2013-03-18 02:24:00,
2013-03-17 22:30:00,35.6,8.6,30.07,NE,40,3.5,-999.9,33,-99.99,,,-99.99,,2013-03-18 02:30:00,
2013-03-17 22:36:00,35.6,8.6,30.07,NE,40,3.5,-999.9,33,-99.99,,,-99.99,,2013-03-18 02:36:00,
2013-03-17 22:42:00,33.8,6.8,30.08,NNE,25,6.9,-999.9,32,-99.99,,,-99.99,,2013-03-18 02:42:00,
2013-03-17 22:48:00,33.8,6.8,30.08,NNE,25,6.9,-999.9,32,-99.99,,,-99.99,,2013-03-18 02:48:00,
2013-03-17 22:54:00,33.8,8.6,30.08,NNE,19,4.6,-999.9,35,-99.99,,,-99.99,,2013-03-18 02:54:00,
2013-03-17 23:00:00,33.8,8.6,30.08,NNE,19,4.6,-999.9,35,-99.99,,,-99.99,,2013-03-18 03:00:00,
2013-03-17 23:06:00,33.8,8.6,30.09,NNE,13,2.3,-999.9,35,-99.99,,,-99.99,,2013-03-18 03:06:00,
2013-03-17 23:12:00,33.8,8.6,30.09,NNE,22,0.0,-999.9,35,-99.99,,,-99.99,,2013-03-18 03:12:00,
2013-03-17 23:18:00,33.8,8.6,30.09,NNE,22,0.0,-999.9,35,-99.99,,,-99.99,,2013-03-18 03:18:00,
2013-03-17 23:24:00,33.8,8.6,30.09,NNE,31,2.3,-999.9,35,-99.99,,,-99.99,,2013-03-18 03:24:00,
2013-03-17 23:30:00,33.8,8.6,30.09,NNE,31,2.3,-999.9,35,-99.99,,,-99.99,,2013-03-18 03:30:00,
2013-03-17 23:36:00,33.8,8.6,30.09,NE,49,2.3,-999.9,35,-99.99,,,-99.99,,2013-03-18 03:36:00,
2013-03-17 23:42:00,32.0,6.8,30.09,NE,46,3.5,-999.9,35,-99.99,,,-99.99,,2013-03-18 03:42:00,
2013-03-17 23:48:00,32.0,6.8,30.09,NE,46,3.5,-999.9,35,-99.99,,,-99.99,,2013-03-18 03:48:00,
2013-03-17 23:54:00,32.0,6.8,30.09,NE,43,6.9,-999.9,35,-99.99,,,-99.99,,2013-03-18 03:54:00,